RH
23 23 25 26 27 29 29 30 31 31 32 32 33 34 34 37 41 46 52 56 59 61 63 65 66 67 69 69 69 68 67 66 63 60 58 56 55 53 53 53 53 52 52 52 53 54 55 57 59 61 63 66 70 76 82 84 85 89 89 85 81 74 64 51 42 40 32 20 16 16 16 18 18 18 18 18 19 19 19 20 19 20 20 20 20
24 24 25 26 28 29 30 31 33 34 35 35 35 34 34 35 40 48 54 58 60 62 64 67 68 70 72 72 73 72 70 68 65 62 60 57 55 54 53 54 53 53 53 54 54 56 57 59 60 63 64 66 70 74 81 84 87 92 93 87 83 77 68 58 48 39 30 20 15 15 16 18 18 18 18 18 19 19 19 20 19 19 20 20 20
24 25 26 27 29 30 31 33 34 36 37 37 37 36 36 37 43 51 56 58 62 64 66 68 70 72 74 75 75 74 72 70 66 63 60 58 56 54 54 54 53 53 54 55 57 58 59 60 61 63 64 65 68 72 77 83 88 95 95 89 84 79 72 63 52 41 29 19 16 17 17 18 18 19 19 19 20 20 19 19 19 19 20 20 21
25 26 26 28 30 31 33 34 36 38 38 38 38 37 38 41 47 54 59 61 64 66 68 70 72 73 75 75 76 75 73 71 67 64 61 58 56 55 54 54 54 55 56 57 59 59 60 61 61 62 63 64 66 70 75 81 89 97 97 91 86 82 76 68 54 40 27 18 17 19 19 20 20 20 21 22 22 22 21 21 20 20 21 22 22
28 28 28 30 32 33 35 37 38 39 40 39 39 38 40 46 53 59 63 66 67 69 70 72 73 74 74 74 75 75 74 72 69 65 62 59 57 55 54 54 55 56 58 59 60 60 61 61 61 61 62 63 66 69 74 79 88 97 98 92 88 84 78 68 53 37 25 19 19 21 22 22 21 22 24 25 25 25 24 23 23 23 22 23 23
31 30 31 33 34 36 38 39 41 41 41 41 39 40 46 53 60 65 68 70 71 72 73 74 74 74 74 74 74 74 74 72 70 67 64 61 59 57 56 57 58 58 60 60 61 61 62 62 62 62 63 65 68 70 74 80 90 99 99 93 88 84 77 66 50 34 24 21 23 26 27 26 24 25 27 28 28 27 27 25 25 26 25 24 24
33 33 35 36 37 40 41 42 44 42 41 41 41 45 53 61 66 70 72 74 74 74 74 75 76 76 76 76 75 75 75 73 71 69 67 64 62 62 61 61 62 63 63 63 63 64 63 63 63 64 66 68 69 73 78 84 92 100 99 93 88 83 74 63 48 34 28 28 29 31 32 31 30 30 30 32 31 29 29 28 26 26 27 28 28
37 37 39 40 41 44 45 45 44 42 41 41 43 48 55 62 67 70 73 74 74 75 75 77 80 81 82 81 80 80 78 77 76 73 71 70 68 67 67 68 68 68 69 69 68 67 66 66 67 67 69 72 74 78 83 89 97 101 98 93 88 80 71 60 48 38 34 34 34 36 37 37 36 34 33 34 33 30 29 31 32 33 34 35 36
44 44 44 46 47 47 46 45 44 43 43 44 46 49 52 58 63 67 72 74 75 78 79 81 84 86 87 87 87 86 85 84 83 81 79 78 77 78 78 78 78 77 77 76 74 73 72 72 72 73 75 77 80 85 90 96 100 99 96 92 85 78 70 60 49 43 41 41 40 41 43 43 39 35 32 31 32 32 34 38 41 43 44 44 42
52 51 50 49 49 48 47 47 47 47 49 49 50 51 53 56 61 65 70 74 77 80 83 86 88 90 91 92 92 93 93 92 91 90 89 89 88 89 88 87 87 86 85 83 81 80 80 80 80 81 83 86 89 93 98 100 100 98 95 90 82 76 68 59 53 48 46 47 45 46 49 46 38 33 32 32 34 37 42 48 51 53 56 57 51
56 54 53 51 50 50 50 51 52 53 54 55 55 56 57 59 62 66 69 72 75 77 80 84 87 90 93 95 96 96 96 96 96 95 94 94 93 94 93 93 93 92 91 91 90 89 89 89 90 91 93 95 98 99 100 101 100 97 93 87 81 75 67 61 57 53 53 54 51 52 55 48 36 34 35 36 40 47 52 57 62 64 65 69 65
57 55 54 54 54 56 56 57 59 60 61 63 63 65 66 67 68 69 70 71 72 74 77 81 85 90 93 96 97 97 97 97 97 96 96 97 97 98 97 97 98 98 98 98 97 98 98 97 98 98 99 100 101 101 101 101 101 97 92 88 82 74 66 63 60 58 59 59 57 57 56 47 37 36 40 43 48 57 65 69 73 75 75 80 80
59 58 59 61 62 64 66 67 69 70 70 70 70 70 70 69 69 68 68 69 69 71 74 78 83 88 91 95 96 97 97 97 97 97 97 97 98 99 99 98 98 99 100 101 101 101 100 100 101 100 101 101 101 101 101 101 99 94 90 88 81 72 66 65 65 66 65 66 68 62 52 49 47 39 41 53 63 72 80 80 78 80 82 81 74
65 67 69 71 73 74 76 76 76 75 74 73 73 72 71 71 71 70 71 71 72 74 75 77 81 84 87 90 92 92 93 94 94 95 95 95 98 100 100 99 98 98 98 99 99 100 100 100 100 100 100 101 101 101 102 100 96 91 89 87 78 70 69 68 67 71 75 81 86 72 52 56 62 52 50 64 74 78 82 78 71 72 73 70 67
76 79 80 81 82 82 81 80 79 78 78 77 76 76 76 77 76 76 76 77 77 78 79 80 82 83 85 88 90 91 92 93 94 95 96 98 100 101 100 100 100 100 99 97 97 99 100 99 99 100 100 99 98 97 95 91 89 88 86 82 75 71 73 72 71 74 76 81 87 80 68 69 69 58 54 61 64 66 72 72 71 74 76 75 76
87 88 87 86 86 85 84 84 84 83 82 82 82 82 81 81 80 79 79 78 78 78 79 80 82 84 87 90 92 94 95 96 97 97 98 100 100 100 100 99 100 100 99 100 99 99 100 100 100 100 99 99 99 96 93 92 93 91 85 81 80 80 81 82 84 85 76 63 62 68 73 77 74 68 68 72 74 78 82 86 88 90 90 90 88
91 91 90 89 89 88 87 87 87 87 87 87 87 85 84 83 82 81 80 78 77 76 76 76 77 79 83 87 91 95 96 98 100 100 100 101 100 100 100 100 100 100 100 100 99 99 100 100 99 100 101 101 99 95 94 97 98 96 95 95 95 94 90 82 76 72 63 54 57 68 80 90 93 91 91 92 93 96 98 100 101 100 98 101 98
91 92 92 92 92 91 91 91 91 92 92 92 90 88 87 86 85 84 83 82 81 79 77 76 75 74 75 77 81 85 87 90 93 93 95 98 98 99 100 99 100 100 99 100 100 100 101 100 100 101 99 98 99 98 98 102 103 102 101 102 102 100 91 74 60 57 58 61 67 76 85 94 99 99 99 97 97 99 103 103 100 99 100 102 101
91 92 93 95 96 95 96 96 95 96 95 94 93 92 91 90 89 88 88 87 86 86 85 84 83 81 79 78 78 78 78 79 81 82 83 85 88 90 93 94 95 96 96 95 94 93 93 96 101 101 100 101 101 94 89 90 95 97 97 98 102 100 89 75 70 73 75 75 75 75 76 79 82 84 88 91 92 92 96 100 101 101 101 100 100
92 94 95 96 97 97 98 98 97 97 96 95 95 94 93 93 92 91 91 91 91 91 91 90 90 88 86 84 82 82 82 81 83 84 84 84 85 85 83 82 80 79 75 70 69 77 86 92 95 97 99 94 80 71 78 87 90 93 96 99 102 100 94 90 88 87 87 87 86 85 83 81 81 82 81 83 84 81 79 84 92 98 100 100 100
94 95 96 96 97 97 97 97 97 96 96 96 97 97 96 95 94 93 93 93 93 94 93 92 91 89 88 87 84 83 84 81 78 74 72 70 67 64 65 65 59 53 52 52 59 76 92 99 98 93 88 75 56 54 79 98 97 95 99 102 101 99 98 99 99 96 96 98 97 96 95 92 91 89 85 82 82 80 76 74 78 87 96 101 102
97 98 99 98 97 97 97 98 99 98 97 93 87 82 79 75 73 73 75 78 81 82 82 82 80 77 72 70 67 63 61 57 49 40 36 35 33 35 47 60 66 70 75 75 75 79 85 90 89 80 71 65 54 47 59 81 93 96 101 103 100 96 96 99 101 100 101 101 101 100 100 99 96 93 90 87 83 80 79 77 75 78 84 91 97
99 101 101 100 100 99 98 96 90 81 71 58 48 41 37 34 34 35 39 44 47 48 49 52 55 51 43 38 37 34 32 32 29 24 22 22 22 24 30 43 68 92 99 95 92 92 90 91 94 88 74 65 60 53 55 73 91 95 94 95 95 94 97 100 101 101 100 100 101 100 100 100 100 99 98 95 88 83 84 86 85 85 84 84 87
101 102 102 101 97 88 77 66 54 43 33 26 22 20 19 18 19 20 23 25 26 26 27 30 33 31 26 24 25 25 25 26 25 24 24 22 22 25 23 27 55 93 106 101 100 102 100 97 100 97 84 73 76 83 87 91 97 97 95 95 96 98 100 100 99 99 100 100 100 100 100 100 100 100 98 94 90 87 89 91 90 88 87 84 81
98 97 92 84 72 56 44 35 29 25 23 21 21 21 21 21 22 23 24 24 25 25 25 27 28 27 27 28 29 29 30 30 30 29 30 29 27 28 28 26 40 68 87 91 93 96 99 102 101 97 91 85 88 96 99 98 99 100 100 100 100 100 101 101 102 102 101 101 100 100 101 100 100 100 99 97 95 94 94 95 92 87 85 84 81
80 72 62 52 43 35 31 28 26 25 24 24 25 25 26 28 28 29 30 29 30 31 31 32 32 32 34 35 35 35 34 34 36 35 35 37 35 33 35 34 34 40 48 54 57 61 70 80 84 84 85 85 85 87 89 91 92 92 93 96 98 98 96 93 94 95 96 98 99 99 99 98 98 97 96 95 96 95 94 94 94 92 91 91 90
56 48 42 38 34 31 30 29 28 29 29 29 30 30 31 32 31 32 32 32 33 33 32 33 34 34 37 37 36 38 36 34 37 40 42 45 46 44 44 43 43 44 45 45 47 50 55 62 66 68 71 73 75 75 75 75 74 71 71 74 77 78 75 72 72 76 78 81 83 84 85 84 84 83 82 83 86 87 87 89 92 93 93 96 99
44 39 37 35 33 32 33 33 33 33 32 33 33 32 32 32 31 30 32 32 31 31 31 33 34 35 41 44 47 50 48 43 43 48 52 53 55 58 61 60 61 65 69 71 74 79 84 86 85 83 82 80 79 78 75 73 71 67 65 65 66 67 68 68 69 72 72 73 74 75 75 75 75 75 74 74 76 79 83 90 96 98 98 99 102
39 37 36 35 35 36 37 36 35 34 33 32 32 31 31 30 28 28 31 33 33 34 34 35 37 44 58 70 77 81 78 67 57 54 60 67 73 79 84 86 87 89 91 93 96 97 98 96 92 89 89 87 87 86 84 81 78 74 72 70 69 69 69 71 72 72 73 74 76 77 77 77 77 77 76 77 77 76 78 86 94 100 102 100 100
39 38 38 39 39 38 37 37 36 35 33 30 28 28 30 32 33 33 35 37 39 41 43 47 58 73 85 93 97 99 98 92 82 74 78 89 96 98 99 99 99 98 98 99 101 101 100 98 96 94 92 90 89 87 85 83 81 79 77 76 75 77 78 79 80 81 83 85 86 87 87 87 86 85 84 84 83 81 81 82 87 96 102 102 101
42 42 42 41 40 38 37 35 33 32 30 28 28 29 31 33 38 42 45 46 48 50 55 64 77 91 98 100 100 100 99 100 98 95 95 97 97 98 100 99 99 100 101 100 100 100 100 99 100 100 98 97 97 95 94 93 92 91 90 90 91 93 92 92 92 92 93 95 95 96 97 97 98 97 94 93 91 91 91 91 92 98 103 103 102
45 44 42 40 39 37 35 32 29 29 31 33 37 40 39 37 37 41 48 54 58 59 61 65 73 83 91 97 99 100 100 100 100 101 101 96 87 84 87 91 94 98 101 101 100 101 101 100 100 101 100 100 100 100 99 99 99 98 99 98 98 98 97 98 98 96 95 97 98 100 101 100 100 101 99 98 97 96 96 97 99 102 104 103 102
44 42 41 39 37 35 32 30 32 35 39 42 45 47 49 49 45 41 41 47 54 61 65 68 72 78 83 87 90 95 99 101 101 101 100 95 90 88 91 95 98 99 101 101 100 100 100 100 100 100 100 100 100 100 100 100 100 100 101 100 100 100 99 99 99 98 98 98 98 100 101 100 100 101 100 100 100 100 100 101 101 102 103 102 101
44 44 42 38 34 31 30 34 39 43 46 49 50 50 52 56 58 55 50 45 43 47 54 62 70 77 81 83 87 92 96 98 98 97 94 94 96 99 100 100 100 100 100 101 102 101 100 100 101 101 101 101 101 100 101 101 100 100 100 100 100 100 99 100 100 100 100 100 100 100 100 100 100 100 100 100 100 101 102 102 102 104 103 101 101
46 44 40 35 31 31 35 42 47 49 50 52 54 55 57 59 62 66 68 66 59 52 49 53 63 72 77 81 86 89 92 93 93 91 93 97 100 101 100 99 99 97 97 98 99 101 101 101 101 101 102 103 103 104 104 104 103 102 101 101 101 100 100 101 100 100 100 100 100 100 100 100 100 100 100 101 100 99 100 101 101 102 102 102 103
43 38 34 32 32 37 44 50 53 54 55 57 60 62 64 67 69 70 72 73 71 66 62 61 64 68 72 79 85 88 90 91 90 90 95 99 100 99 100 101 100 98 96 95 97 100 102 101 101 100 101 102 103 103 104 105 104 103 103 102 102 102 101 101 100 101 101 101 101 101 100 100 101 100 101 101 101 100 101 100 100 100 100 100 103
36 32 30 33 39 46 51 55 57 59 62 64 67 67 65 65 66 66 67 69 71 72 73 74 73 71 72 78 85 88 88 90 92 93 95 97 98 99 101 103 103 102 100 98 97 99 99 100 100 101 102 102 103 103 103 102 102 102 101 100 99 99 98 98 98 99 100 100 100 100 100 100 100 100 101 101 101 102 101 100 100 101 100 99 100
30 31 34 41 49 54 57 58 62 66 68 68 66 61 55 54 59 65 71 75 77 77 77 77 78 78 78 81 85 88 90 92 94 95 94 94 94 95 97 98 98 98 97 96 96 96 96 97 98 100 101 102 102 101 101 101 101 102 102 100 99 97 95 93 93 93 94 93 93 93 93 92 92 95 100 102 101 101 101 101 100 100 101 101 101
32 37 44 51 57 61 63 66 68 68 63 57 51 48 51 59 69 76 78 76 76 76 76 77 79 83 87 90 92 94 96 97 96 94 90 88 87 88 91 92 93 95 96 96 95 94 95 96 96 97 100 102 103 104 104 103 103 103 102 100 99 97 95 94 93 92 91 90 89 88 87 83 80 85 94 100 101 100 99 100 100 100 101 101 100
42 48 54 59 63 66 67 67 63 55 46 41 41 49 62 73 78 79 76 73 74 75 78 81 84 88 92 96 98 100 103 103 101 97 93 89 87 88 90 92 95 97 98 98 98 99 99 99 98 98 99 102 103 102 101 99 98 97 97 96 96 95 93 91 91 93 96 96 94 92 88 81 76 77 83 89 94 97 96 95 95 95 97 99 100
54 58 61 64 66 64 58 51 45 39 36 40 50 65 77 81 79 76 73 74 77 79 82 86 89 92 97 100 100 101 103 104 103 102 100 97 95 93 93 96 99 100 100 99 100 101 102 101 100 99 97 96 96 94 93 93 94 95 97 98 98 97 93 90 89 91 93 94 94 93 90 82 76 77 83 88 93 95 93 90 89 90 91 94 97
61 63 63 63 59 51 42 37 36 36 41 52 67 80 84 81 76 75 75 77 81 83 85 87 90 93 98 100 100 99 99 100 101 101 100 99 99 97 97 99 100 100 101 101 101 101 101 100 98 97 94 93 93 93 93 95 95 96 97 98 97 97 96 95 93 93 92 92 94 95 91 82 77 82 91 95 95 93 89 86 86 87 89 92 95
65 65 61 54 46 39 36 37 38 41 50 64 78 85 83 77 75 76 78 80 84 86 87 88 90 94 99 101 100 97 96 96 97 98 99 100 100 99 99 100 100 99 100 100 99 98 97 96 96 96 95 96 96 97 97 97 97 99 100 100 100 101 100 100 100 100 99 99 98 95 90 85 83 87 93 94 92 89 84 81 81 83 84 86 89
69 65 55 44 38 37 39 41 41 46 58 73 83 84 79 75 74 77 79 82 85 88 89 90 93 97 100 102 100 98 96 97 98 99 100 100 100 99 98 98 98 98 98 97 95 94 94 94 95 96 97 97 97 96 95 94 96 99 100 101 100 100 100 101 102 99 95 92 90 89 90 91 91 91 91 90 88 86 83 82 83 82 80 78 78
71 60 47 39 38 39 41 42 45 53 66 78 83 81 78 76 76 79 82 85 87 89 91 93 97 100 103 104 103 100 99 100 100 99 99 99 99 99 98 98 97 97 96 94 94 95 95 96 97 97 97 96 95 93 93 94 96 99 102 103 104 103 102 102 101 94 87 85 89 95 100 99 96 93 91 89 89 89 91 93 94 91 86 79 74
67 53 43 40 40 40 40 42 47 57 70 79 82 81 80 80 80 81 84 87 89 90 92 95 98 101 102 105 105 102 100 100 99 98 98 98 97 97 97 96 96 95 94 94 96 97 97 98 98 97 95 94 93 92 92 91 91 91 92 93 95 97 99 101 98 94 90 91 96 101 102 98 94 94 95 95 96 98 100 100 97 91 87 83 79
63 49 43 43 42 41 42 43 47 57 70 81 85 85 84 82 81 82 85 88 90 92 93 96 98 100 101 103 105 104 101 100 99 97 96 95 95 95 96 95 94 94 94 96 98 98 97 96 95 94 94 92 90 87 84 81 78 76 75 78 84 92 98 99 97 96 97 97 98 99 98 93 89 90 93 96 98 98 98 96 92 89 88 88 85
60 48 44 45 44 44 44 46 50 61 73 83 88 90 88 85 82 83 86 88 90 92 94 96 98 99 100 102 103 103 102 101 99 96 95 94 94 95 95 95 95 96 97 98 98 96 94 94 93 92 90 85 80 77 76 75 74 73 74 80 89 95 97 95 94 95 97 97 96 95 93 89 89 93 97 100 101 99 98 97 95 92 91 89 87
61 49 46 47 47 48 49 50 56 65 76 86 91 93 91 87 84 84 86 89 91 93 96 98 100 100 99 101 101 100 99 99 98 96 95 95 95 95 94 95 96 97 96 96 95 94 93 92 90 85 79 74 72 73 75 76 76 77 81 87 93 97 97 98 98 99 99 97 95 93 91 89 92 97 102 104 105 103 100 97 92 89 88 89 90
64 51 48 50 50 51 53 55 60 69 80 89 94 95 93 89 86 85 86 89 93 95 98 101 103 102 100 99 99 98 97 97 96 96 96 95 95 95 95 95 96 96 96 95 94 93 91 87 81 75 71 69 69 72 75 77 80 83 86 89 92 94 95 95 95 93 90 89 90 93 95 95 96 97 98 100 102 100 96 92 89 90 92 95 97
68 54 50 52 53 54 55 57 61 71 81 88 92 95 93 90 88 88 89 91 94 97 100 102 104 104 102 99 98 98 97 97 97 97 96 95 95 95 95 96 96 96 95 93 91 89 85 79 73 69 68 67 68 70 73 76 81 84 85 84 84 84 83 82 81 80 79 80 81 84 90 94 97 98 99 100 100 97 94 93 94 97 99 100 101
Wind_Speed
15 16 16 17 18 18 18 18 18 20 22 24 26 28 29 31 32 33 34 35 36 38 40 41 42 43 44 45 45 45 45 44 45 46 47 48 49 49 49 49 49 49 48 48 48 47 47 47 47 47 47 47 46 44 42 40 39 36 34 31 28 27 26 27 32 35 35 34 34 34 33 32 32 31 30 30 29 29 30 31 32 34 35 35 35
16 17 18 19 20 20 19 19 19 21 23 25 27 29 31 31 31 32 33 33 33 34 36 37 38 40 41 42 43 43 43 43 44 45 46 47 48 48 48 48 48 48 47 48 47 46 47 47 47 47 48 48 46 45 44 42 40 39 36 33 30 28 27 27 30 34 36 36 35 36 35 34 34 33 31 31 31 30 31 32 32 33 34 35 35
17 19 19 20 21 21 20 21 22 23 25 26 29 30 31 31 30 30 31 30 30 31 32 33 34 36 38 39 40 41 41 42 42 44 45 45 46 47 47 47 48 47 47 47 46 46 47 47 47 48 48 48 47 46 45 43 42 40 37 34 31 29 27 28 30 33 36 37 37 36 36 35 35 34 32 32 32 32 32 32 33 33 34 34 34
19 20 21 22 21 21 22 23 24 26 27 28 30 31 31 30 29 28 27 26 26 27 28 29 31 32 34 36 37 38 39 40 41 42 43 44 45 45 46 46 46 46 46 46 46 46 47 47 47 47 47 48 47 46 45 44 43 41 39 35 32 30 28 28 30 33 36 38 38 37 36 35 35 34 34 33 33 33 33 33 33 34 34 34 34
20 21 21 22 22 22 23 25 27 28 29 30 30 30 29 28 27 25 24 23 24 24 25 26 28 29 31 32 33 35 36 38 39 41 41 42 43 44 44 45 45 46 46 46 46 47 47 48 48 47 48 48 47 47 46 45 43 42 39 36 33 30 29 30 31 33 35 38 38 37 36 36 35 35 34 34 34 34 34 34 35 35 35 35 35
19 20 20 21 22 24 26 28 29 29 30 29 29 28 26 25 23 22 22 22 23 23 23 24 25 26 27 28 30 32 34 35 37 39 39 40 41 42 43 44 45 45 46 46 47 47 48 48 48 48 48 48 48 47 46 44 43 41 39 36 32 30 30 31 32 33 35 37 38 38 37 36 36 36 35 35 35 36 36 37 36 36 36 35 35
18 19 21 23 26 28 30 30 30 29 28 27 25 24 23 22 21 21 21 21 22 22 22 22 22 23 24 26 28 30 32 34 36 37 38 39 40 41 42 43 44 45 45 46 46 47 48 48 48 48 49 49 48 47 46 43 41 40 38 34 31 31 32 32 33 34 35 37 37 38 38 37 37 37 36 35 35 37 38 39 39 37 35 35 35
21 24 26 29 31 32 31 30 29 26 24 23 21 20 20 20 20 20 20 21 21 21 21 21 21 22 23 25 26 28 30 32 34 35 36 37 38 39 40 41 42 43 44 44 45 46 47 47 48 49 49 49 48 46 44 40 38 38 35 32 31 32 33 34 34 35 36 37 38 38 38 38 38 38 37 36 38 39 38 38 40 38 35 34 34
27 29 32 33 32 30 28 26 24 21 20 19 18 18 18 18 19 19 20 20 21 21 21 21 21 22 23 24 25 27 28 30 31 32 33 34 35 36 37 38 39 40 41 43 44 45 46 47 48 48 48 48 47 44 41 38 36 35 33 31 32 33 34 35 35 35 36 37 38 39 39 40 40 39 38 37 39 39 37 37 39 38 35 34 34
30 31 31 29 27 24 21 20 18 18 18 18 18 18 18 19 19 19 20 20 21 21 21 21 21 22 22 23 24 25 27 28 29 29 30 31 32 33 34 35 36 38 39 41 43 44 45 46 47 47 47 46 44 41 38 35 34 33 32 32 32 33 34 35 36 36 36 38 39 39 40 42 42 40 39 38 38 39 38 37 38 37 35 36 37
27 25 23 21 19 17 17 17 17 17 18 18 18 19 19 19 20 20 21 21 21 21 21 21 21 21 22 23 23 24 25 26 26 26 27 28 29 30 32 33 34 36 38 40 42 43 44 45 45 45 44 43 41 38 35 34 33 32 33 33 34 35 36 36 36 36 36 38 40 40 41 43 42 40 40 39 38 39 39 38 37 37 36 37 38
20 18 17 16 16 16 16 17 17 18 18 19 19 20 20 21 21 21 21 21 21 21 21 21 21 21 22 22 23 24 24 24 24 25 25 25 27 29 30 32 33 35 37 38 40 41 42 43 43 42 41 40 37 35 33 33 32 33 34 35 36 37 37 37 38 37 38 39 40 41 43 44 43 42 40 38 39 40 40 38 36 36 36 36 37
15 14 14 15 16 16 17 17 18 18 19 19 20 20 20 20 20 20 20 21 21 21 21 21 21 21 22 22 23 24 24 24 23 23 23 23 24 26 29 31 32 33 34 35 37 38 39 40 40 39 38 36 34 33 32 32 33 34 35 36 38 38 38 39 39 38 39 40 42 44 44 43 44 43 39 37 38 39 39 38 36 35 36 36 36
15 15 16 16 17 18 18 19 19 19 19 19 19 19 19 19 19 19 19 19 19 20 20 20 20 21 21 22 23 23 23 22 22 22 22 23 24 24 26 29 30 31 31 30 30 31 33 34 35 35 33 33 32 32 32 32 34 35 37 38 40 40 40 40 39 39 39 40 43 45 44 43 43 42 38 37 38 38 38 37 34 34 34 33 32
17 17 18 18 18 18 18 19 19 18 18 18 17 17 17 17 17 17 17 17 17 18 18 18 19 20 21 21 22 22 22 21 22 22 23 24 23 22 23 27 29 30 30 30 29 29 28 29 30 30 30 30 31 31 32 33 34 36 38 39 40 41 42 42 42 41 42 42 44 46 45 44 43 42 39 36 36 36 35 33 32 32 32 32 32
17 17 17 17 17 17 17 17 17 17 16 16 15 15 15 15 15 15 15 15 15 16 16 17 17 18 19 20 21 21 21 21 22 23 23 23 20 19 22 26 28 27 26 26 27 28 28 29 30 30 30 30 30 31 33 34 35 36 38 40 41 42 44 44 43 43 43 43 42 42 42 42 40 38 34 32 32 31 30 31 31 31 33 36 35
16 16 15 16 16 16 16 17 16 16 15 15 14 14 13 13 13 13 13 13 13 14 14 15 16 17 17 18 19 19 19 20 21 22 21 20 17 18 22 25 27 26 25 24 25 26 27 28 29 30 31 32 32 34 34 35 36 38 40 41 42 44 45 44 42 40 39 38 37 36 37 37 37 35 32 31 32 31 32 36 36 34 35 38 38
15 15 15 16 16 16 17 17 17 16 15 14 14 13 12 12 12 12 12 12 12 13 14 14 15 15 16 16 17 17 17 18 19 19 20 19 19 20 24 27 29 30 30 30 31 31 31 32 32 33 34 34 34 35 36 36 37 38 40 41 42 43 43 40 38 36 34 32 31 32 33 34 35 35 35 34 34 35 38 42 41 39 41 43 42
15 15 15 16 17 17 18 18 17 16 15 14 14 13 13 13 13 12 13 13 13 13 14 14 14 14 15 16 16 17 17 17 18 19 20 21 22 24 27 30 32 33 34 35 36 37 37 37 36 36 36 36 35 36 37 36 37 38 39 39 41 42 40 38 37 36 34 34 33 32 31 31 31 32 33 34 35 36 38 40 38 38 41 43 42
16 16 17 17 17 17 17 17 16 16 15 15 14 14 14 14 14 14 14 14 14 14 14 14 15 15 15 16 17 18 19 19 19 21 22 23 25 27 29 31 33 35 36 37 37 37 37 36 35 35 35 35 35 35 33 32 33 36 38 39 41 41 39 37 38 37 37 38 37 36 35 34 33 32 32 33 34 35 36 37 38 38 39 39 39
17 18 18 17 17 17 17 17 16 16 16 15 15 15 15 15 15 16 16 15 15 15 15 16 16 16 17 18 19 20 21 22 22 23 24 25 26 27 28 29 31 32 33 33 33 33 33 33 33 33 33 34 34 32 31 31 32 35 37 39 39 39 38 39 39 39 39 40 40 40 39 39 37 35 34 33 34 35 36 38 39 41 42 41 40
19 18 18 17 17 17 17 17 17 17 16 16 16 16 15 15 15 15 15 15 15 15 16 16 17 18 18 19 20 21 21 23 23 22 23 23 24 25 25 25 26 26 27 28 29 29 30 30 31 32 32 33 33 32 32 32 33 34 36 36 36 36 36 38 38 39 39 40 40 41 41 41 40 38 37 35 34 33 34 36 37 39 41 42 42
19 19 18 18 17 17 17 16 17 16 16 15 14 14 14 14 14 14 14 15 15 15 15 17 18 19 19 19 19 20 21 21 22 21 21 22 23 23 24 24 23 22 24 26 27 27 27 28 29 29 30 30 30 29 29 29 30 32 33 33 34 34 34 35 35 34 34 34 35 36 38 39 40 40 39 38 36 34 33 33 34 35 37 39 39
19 18 18 17 17 16 15 14 14 14 14 13 13 13 13 13 13 13 13 14 14 15 15 16 18 19 19 19 19 19 19 20 21 21 22 22 23 23 24 23 22 21 22 25 26 26 27 28 28 28 28 28 27 26 26 27 29 30 30 30 32 33 33 34 33 32 31 30 30 30 31 32 34 35 35 35 35 34 33 32 32 32 34 36 37
17 17 16 16 15 14 13 13 13 13 13 13 13 13 13 12 12 13 13 14 15 15 15 16 18 19 19 19 19 18 18 19 20 20 21 22 22 22 23 23 22 22 23 25 26 28 29 29 27 26 26 26 26 27 28 30 32 32 32 33 35 36 35 35 35 34 34 35 34 34 33 33 34 35 35 35 36 36 36 36 36 36 35 36 37
15 15 15 15 14 14 13 13 13 13 13 13 13 13 13 13 13 13 14 14 15 16 16 17 17 18 19 19 19 18 18 19 19 19 19 20 20 21 22 23 23 24 25 27 28 29 30 30 30 31 31 32 33 33 34 35 36 37 37 38 38 39 39 39 39 40 40 40 40 41 41 40 40 40 39 39 39 40 41 41 41 41 40 39 39
14 14 14 14 14 14 13 13 13 13 13 13 13 13 14 14 14 14 14 15 15 16 16 16 17 18 18 18 18 18 18 17 18 17 17 18 19 19 20 20 21 21 23 23 24 24 24 24 25 27 30 32 34 36 38 39 40 41 41 41 41 41 41 41 41 41 42 41 41 42 41 40 40 39 39 38 38 39 39 40 41 42 42 41 41
14 14 14 14 14 14 14 14 13 13 13 13 14 14 14 14 14 14 14 15 16 16 16 16 16 16 16 16 17 18 17 17 17 16 17 18 19 19 19 19 19 19 20 20 20 19 19 20 21 23 25 27 29 31 33 35 36 37 38 37 37 36 36 36 37 37 38 38 38 38 37 37 37 37 37 37 37 36 35 36 38 39 39 39 41
14 14 14 15 15 15 14 14 15 15 14 14 14 14 14 15 15 14 14 14 15 16 16 16 16 15 15 16 17 19 20 20 19 19 18 18 19 20 22 22 23 23 22 22 21 21 22 22 23 23 24 25 26 27 28 29 30 31 31 31 32 32 32 32 33 34 34 35 35 36 36 36 36 35 35 36 36 35 34 34 35 36 36 37 40
14 14 15 15 15 15 15 15 15 15 15 15 14 13 13 13 14 15 14 14 15 16 16 16 15 15 17 19 19 20 22 22 21 21 20 18 19 21 23 23 23 23 23 22 22 23 23 24 24 24 24 24 25 26 27 28 29 30 30 30 31 31 32 33 34 34 34 34 35 35 34 34 34 33 33 33 34 33 32 32 33 34 35 36 39
15 15 15 15 15 15 15 15 15 14 14 14 14 14 13 12 13 13 14 14 15 15 15 15 14 14 16 17 18 19 20 20 20 19 19 18 20 23 25 25 23 23 23 21 22 23 24 24 24 23 22 23 25 25 26 27 28 29 29 29 29 30 30 31 32 32 32 33 33 33 33 33 33 32 32 32 33 32 32 31 32 33 34 36 38
16 16 16 16 16 16 15 15 14 14 14 14 14 15 15 15 14 14 14 14 15 15 15 15 15 15 15 16 18 20 21 22 22 20 20 22 24 26 27 28 27 26 24 22 22 24 24 22 21 20 20 20 21 21 22 22 23 24 24 25 26 27 27 28 29 30 30 31 32 32 32 32 32 32 32 32 33 33 33 33 33 33 34 35 37
17 17 17 17 16 15 15 14 14 13 14 14 15 16 17 17 18 17 16 15 15 16 16 16 16 17 18 19 21 22 22 23 23 22 24 25 24 24 24 24 24 26 26 25 25 25 26 25 25 24 24 24 23 23 23 23 23 23 23 24 24 25 26 26 27 27 27 28 28 28 28 28 27 27 27 27 28 29 31 33 34 35 35 35 36
18 17 17 17 16 15 14 14 14 14 15 15 16 17 17 18 19 20 20 19 18 18 17 17 17 18 19 20 21 21 22 22 23 24 24 22 19 20 20 20 21 24 25 25 26 26 27 27 27 27 28 28 29 29 29 29 29 28 28 28 28 28 28 28 28 28 28 28 28 27 27 27 26 26 26 25 24 24 25 27 29 32 35 37 37
17 17 17 17 16 15 15 15 15 16 16 17 18 18 19 19 20 21 22 22 22 22 21 19 18 19 20 21 21 22 22 23 23 24 21 16 15 20 23 22 23 24 24 24 26 27 28 28 29 29 29 29 29 29 29 30 30 30 30 30 30 31 31 32 32 32 32 32 33 32 32 31 30 29 29 28 27 26 25 23 23 24 28 32 36
17 17 16 15 15 15 15 15 16 17 17 18 19 19 20 20 21 21 21 22 23 24 23 22 20 19 20 21 22 22 23 23 23 22 20 17 18 23 26 25 25 26 26 26 28 28 29 29 28 28 27 27 26 26 26 26 26 26 26 27 27 28 29 29 30 31 31 32 33 33 33 34 33 32 32 31 30 29 29 28 26 24 22 23 26
16 16 15 15 15 15 15 16 17 17 18 19 20 20 20 20 21 21 22 22 23 24 24 23 23 22 20 20 21 23 24 25 24 22 21 21 22 24 24 24 24 24 24 24 25 26 27 26 25 25 25 24 24 24 24 24 24 24 24 24 25 25 25 25 25 25 25 26 27 27 28 29 29 29 29 29 29 28 28 28 29 29 27 24 22
15 15 15 15 15 16 17 17 18 19 20 20 20 21 21 21 21 21 22 23 23 24 24 24 24 24 23 22 22 23 24 25 24 22 21 21 22 22 22 21 21 21 21 21 22 23 23 23 23 23 23 22 22 23 23 23 23 23 23 23 22 22 22 22 21 21 22 22 22 23 23 23 23 23 23 24 24 24 24 24 25 26 27 27 24
15 15 15 15 16 17 18 19 19 20 21 21 21 21 21 21 22 22 23 23 23 24 24 24 25 25 24 24 24 23 24 24 23 22 21 20 20 20 21 21 21 21 22 22 22 21 22 21 21 22 22 21 21 22 22 22 22 21 21 21 20 20 20 19 19 19 19 19 20 20 20 20 20 19 19 20 20 20 21 22 22 22 22 23 23
16 16 16 17 18 18 19 20 20 20 21 21 20 21 21 21 22 22 23 23 24 24 25 25 26 25 24 24 23 23 22 22 21 21 21 21 20 21 21 22 22 22 22 22 22 21 20 20 20 20 20 20 20 20 20 20 20 19 19 19 19 19 19 19 18 18 17 17 17 17 18 18 18 18 18 18 18 18 19 19 20 20 21 21 21
17 17 18 18 19 19 19 20 20 20 20 20 20 20 21 21 22 23 23 24 24 25 26 26 26 26 24 23 22 20 20 20 20 20 21 21 21 21 21 21 21 21 21 20 20 19 19 19 19 19 18 18 18 19 19 19 19 19 19 19 19 19 18 18 18 17 17 16 17 16 17 17 17 17 16 15 15 15 15 15 16 17 18 19 19
18 18 18 19 19 19 19 20 20 20 20 20 20 20 21 21 22 22 23 24 25 26 27 27 27 26 24 23 21 20 19 20 20 21 21 21 21 20 20 19 19 19 18 18 18 18 17 17 16 17 17 17 17 18 19 19 20 20 20 19 19 18 17 16 16 16 17 17 17 17 18 19 18 16 14 13 13 13 13 13 13 13 14 15 16
18 19 19 19 19 19 20 20 20 20 20 20 20 21 21 21 22 22 23 24 25 26 27 27 27 26 24 22 21 20 19 20 20 21 21 20 20 18 17 16 16 16 17 17 16 16 15 15 15 16 17 17 18 19 20 21 21 20 20 20 19 19 18 17 17 17 17 18 18 18 18 18 17 15 13 12 12 13 12 12 12 12 13 13 13
19 18 18 18 18 19 19 19 20 20 20 20 20 20 21 21 22 22 23 24 25 26 27 27 27 26 24 22 20 19 19 19 19 19 19 18 17 16 15 15 15 15 15 15 15 15 15 15 15 16 17 18 19 20 20 20 20 20 20 20 20 20 20 19 18 18 19 19 19 18 16 15 15 14 13 13 12 12 12 12 12 12 12 13 13
18 18 18 18 19 19 19 19 20 20 20 20 20 20 20 21 22 22 24 25 26 26 27 26 25 24 22 21 19 18 17 17 17 17 17 16 15 14 14 14 14 14 14 14 14 14 15 15 16 17 18 18 19 19 19 20 20 21 22 22 22 22 21 20 20 20 18 17 15 14 13 13 14 13 13 13 13 13 12 12 13 13 13 13 13
18 18 19 19 20 20 19 20 20 20 20 20 20 20 21 21 22 23 24 25 26 26 26 25 24 22 20 19 18 17 16 16 16 16 15 14 14 13 13 13 13 13 13 13 14 15 16 16 17 18 18 18 19 20 20 21 21 21 21 21 22 22 20 19 18 16 13 12 11 11 12 13 13 13 13 12 12 12 13 13 13 14 14 14 14
18 18 19 19 20 20 20 20 20 20 20 20 20 21 21 22 22 23 24 25 25 26 25 24 22 20 19 18 17 17 16 16 16 15 14 14 14 13 13 13 12 12 13 14 15 16 16 17 17 17 18 19 20 20 19 18 16 15 15 14 14 14 13 12 12 11 10 10 11 11 12 13 13 12 12 12 11 12 13 14 14 15 15 15 15
18 18 19 19 20 20 20 20 20 20 20 20 20 21 22 22 23 23 24 25 25 25 24 23 21 19 18 17 17 16 16 16 15 15 14 14 13 13 12 12 12 13 14 15 15 16 16 16 16 17 18 18 17 16 14 12 11 10 9 8 7 7 8 8 9 9 10 11 11 11 12 12 12 11 11 11 12 13 13 14 15 16 16 16 16
18 18 18 19 19 20 20 20 20 20 20 21 21 21 22 22 22 23 24 24 25 24 23 22 20 18 18 17 16 16 15 15 14 14 14 13 12 12 12 12 13 14 15 15 14 14 15 15 15 16 15 15 14 13 11 10 8 7 7 6 5 6 7 8 9 10 11 12 12 12 12 11 11 11 11 12 13 13 14 15 15 16 16 16 15
18 18 18 19 19 19 20 20 20 20 20 20 21 21 22 22 22 23 23 24 24 24 22 21 19 18 17 16 16 15 14 13 13 12 12 12 12 12 13 14 14 14 14 14 13 13 14 14 13 13 13 12 11 10 10 9 8 7 7 7 7 7 8 9 10 11 12 13 13 13 13 13 13 13 13 13 14 14 14 15 15 15 15 15 15
18 18 18 19 19 19 20 20 20 20 20 20 21 21 22 22 22 22 23 24 24 23 22 20 18 17 17 16 15 14 14 13 12 12 12 12 12 13 13 13 13 13 13 13 12 12 12 11 11 11 11 10 9 8 8 7 7 7 8 8 8 8 8 9 10 10 11 12 12 12 12 13 13 14 14 14 14 14 14 14 14 14 13 14 14
Wind_Direction
276 275 272 270 270 271 273 274 277 281 282 282 280 278 277 274 273 273 273 273 273 272 271 271 270 270 268 267 266 265 264 263 261 259 258 257 256 255 255 254 254 255 255 255 255 255 255 255 255 254 254 253 253 251 249 249 249 248 248 248 250 253 257 261 267 275 278 276 275 275 274 273 272 273 274 274 273 272 272 272 271 272 273 273 274
282 280 276 270 270 272 272 274 278 283 286 285 283 280 277 275 273 273 273 273 272 272 271 271 271 270 269 268 267 265 264 263 261 259 258 257 256 255 255 254 254 255 255 255 256 256 255 255 255 254 253 253 253 251 249 249 248 248 247 247 249 252 256 261 267 273 277 276 275 273 273 273 274 275 275 274 274 273 271 270 270 271 271 272 272
284 280 274 268 267 268 268 272 279 286 288 288 287 282 277 274 273 272 272 272 272 271 271 272 272 271 270 268 267 266 264 262 261 258 258 257 256 256 255 255 255 256 256 257 258 257 256 256 255 255 254 255 254 252 250 249 248 248 247 246 249 252 255 261 265 271 275 275 273 272 274 274 275 277 277 276 276 275 273 273 273 272 272 272 272
281 275 268 263 261 261 265 274 282 287 289 289 288 282 276 273 271 270 270 270 269 269 269 270 270 270 269 268 267 266 264 263 261 259 258 257 256 256 255 255 256 257 257 258 258 257 257 257 257 257 256 256 255 253 251 250 249 248 247 246 248 252 256 261 265 269 273 273 272 272 274 275 276 278 278 278 278 277 277 277 276 276 275 275 275
275 267 261 257 256 262 270 280 286 289 290 288 284 280 275 271 268 267 267 267 267 267 267 266 267 266 267 267 267 266 265 264 262 260 259 258 257 256 255 255 256 257 257 257 257 256 257 258 259 258 256 256 256 254 253 252 250 249 247 246 248 253 257 261 265 267 269 270 272 273 274 275 276 277 277 278 279 279 279 278 277 277 276 276 277
268 261 258 259 265 274 282 287 290 290 288 284 280 276 273 269 266 265 266 267 267 266 266 264 264 264 265 266 267 266 265 264 262 261 260 258 256 255 254 254 255 255 256 256 256 256 257 258 257 256 256 257 257 257 256 254 252 250 248 248 250 255 258 262 265 266 267 269 271 272 273 275 276 277 277 278 280 280 280 279 277 276 277 279 279
271 268 269 275 281 287 289 290 290 288 285 281 277 274 272 269 267 267 266 267 267 267 266 265 264 265 266 267 266 266 265 263 262 260 259 257 256 254 254 254 254 254 254 255 255 255 255 256 256 255 256 257 258 258 257 256 255 252 249 249 253 256 259 262 264 265 267 268 270 272 273 274 275 276 277 279 279 278 278 279 279 280 281 282 281
285 284 286 289 290 291 291 290 288 284 280 277 275 273 272 270 269 269 269 269 269 270 269 268 267 266 266 266 266 265 264 262 261 260 258 257 256 255 255 255 254 254 255 255 254 254 254 255 255 255 256 258 258 258 258 258 256 252 250 251 254 256 259 262 263 265 266 268 269 271 273 274 274 275 276 276 276 276 278 280 282 283 283 282 283
292 291 290 291 291 289 288 285 282 279 277 276 275 273 272 270 269 269 269 270 271 270 270 268 266 265 264 264 264 263 262 262 261 261 260 259 259 259 258 257 256 256 256 255 254 254 254 254 254 255 256 257 258 258 259 258 254 251 252 254 256 258 260 262 263 264 265 267 269 270 271 272 273 274 275 275 275 278 280 280 280 282 285 285 283
294 291 289 287 286 283 280 277 275 275 276 276 275 274 273 271 269 268 268 267 267 267 266 266 265 264 265 264 264 264 264 264 264 264 264 264 263 263 262 260 260 259 258 257 256 255 255 255 255 256 257 257 258 259 259 256 252 252 254 256 258 259 260 261 262 264 265 266 268 269 270 271 272 273 274 276 277 279 279 279 280 283 285 284 281
292 287 283 279 276 273 271 272 274 276 278 278 277 276 274 272 269 268 267 266 265 264 263 263 263 263 264 265 266 266 267 267 268 268 268 268 267 267 265 265 264 262 261 259 258 258 258 258 258 258 258 258 259 259 257 254 253 255 257 259 260 260 260 261 263 264 264 266 268 269 268 270 272 273 274 276 277 277 277 278 281 282 281 280 281
283 277 274 271 270 270 272 275 277 278 278 277 276 274 272 270 268 267 265 264 262 261 260 260 261 262 263 264 266 267 268 269 270 270 270 270 271 271 269 268 266 265 264 263 263 262 261 261 261 260 260 260 260 258 256 254 256 258 259 261 261 261 261 262 264 265 265 266 268 268 268 270 273 273 273 275 276 276 277 278 278 278 277 277 278
276 274 275 275 277 280 281 282 282 281 280 278 276 275 273 271 268 266 264 262 259 258 256 256 257 259 260 262 263 265 266 267 268 269 269 269 271 271 270 269 269 268 268 267 266 265 264 263 263 262 261 260 259 257 256 256 258 260 261 261 260 260 260 261 264 266 267 269 269 269 269 270 271 273 274 274 275 276 276 276 276 275 275 275 278
284 286 287 288 289 289 288 288 286 284 283 281 280 278 276 273 271 268 265 263 260 258 256 254 254 254 255 257 259 260 262 262 263 263 262 263 265 265 265 267 268 269 270 270 269 267 266 265 264 263 262 260 258 257 257 259 261 261 261 260 259 259 260 261 263 263 265 266 267 270 273 272 272 274 276 275 275 275 275 276 278 278 278 279 281
294 294 295 293 292 290 288 286 285 284 284 283 282 280 278 274 272 270 267 266 263 261 259 257 255 254 254 255 256 257 257 257 256 255 256 257 260 260 259 261 264 266 267 268 268 267 266 264 262 261 260 259 259 260 262 263 264 263 262 261 260 262 263 264 265 265 265 264 264 266 269 270 272 276 278 278 278 277 278 279 279 279 279 277 275
298 296 294 292 289 287 286 285 286 287 286 286 284 281 279 276 274 272 270 268 266 263 261 259 258 256 256 255 255 255 254 253 251 252 253 254 255 254 254 257 261 263 263 262 261 262 262 261 259 257 256 256 258 261 264 265 263 262 261 261 262 264 265 266 267 268 268 268 268 268 268 270 273 275 277 277 276 277 278 276 273 271 271 270 269
301 298 296 293 290 290 290 291 293 293 292 291 288 285 282 279 277 275 273 270 267 264 261 258 257 255 255 254 254 253 252 251 250 250 251 249 247 246 249 254 259 262 264 263 262 260 259 258 257 257 256 257 260 264 266 264 262 262 262 262 264 264 265 267 268 268 269 270 271 272 272 273 274 274 274 272 272 275 274 270 268 267 265 263 264
305 303 299 296 294 294 294 295 297 297 296 294 292 289 287 284 282 279 277 274 271 266 263 260 259 258 257 256 256 254 253 251 250 250 249 245 242 242 245 249 254 258 261 263 264 264 263 262 262 261 260 261 261 261 262 261 260 261 262 263 265 265 267 271 273 273 273 272 270 267 265 265 266 267 267 266 267 269 268 268 272 272 266 263 264
306 303 298 295 295 295 297 298 298 298 297 296 294 293 290 288 287 284 281 279 275 272 269 266 265 263 262 261 261 260 258 255 254 254 252 250 250 250 251 252 255 258 261 263 265 265 265 264 263 262 262 261 259 259 259 259 258 260 261 261 262 265 269 274 276 276 277 277 274 272 269 266 263 261 259 258 258 259 260 263 267 267 264 263 264
306 303 299 297 298 298 299 299 298 298 297 296 295 293 291 289 288 285 283 281 278 276 274 271 269 267 266 266 265 265 264 261 259 258 257 256 257 259 260 261 262 262 263 264 264 265 265 264 262 261 259 259 260 262 263 263 262 264 263 260 259 264 271 275 276 277 278 278 278 278 276 273 269 264 260 256 254 253 254 256 259 261 262 263 262
306 303 301 300 300 300 300 299 298 298 297 295 294 293 290 289 287 284 283 280 278 277 275 273 272 270 269 269 268 268 268 267 266 263 263 263 262 263 264 264 264 265 264 263 262 261 262 261 261 260 259 259 261 261 260 259 260 263 263 262 263 268 272 272 273 274 274 274 276 277 276 275 273 270 266 261 257 254 252 253 255 258 261 262 262
307 304 302 301 300 300 300 300 300 299 298 296 295 292 290 288 286 283 282 279 278 277 275 274 274 272 272 272 272 273 273 273 273 270 267 267 265 263 263 263 264 266 267 267 266 265 264 263 263 264 263 263 263 260 258 257 257 257 259 261 264 268 270 270 271 270 269 269 270 270 271 272 273 272 271 268 264 260 257 256 255 256 259 261 262
306 304 302 301 300 300 300 300 300 299 298 296 295 292 290 289 287 284 282 279 278 278 277 277 277 277 277 277 277 278 278 278 278 276 273 270 267 264 261 261 261 263 264 265 268 271 271 270 269 268 267 268 268 266 263 261 259 259 260 261 263 265 266 266 266 266 264 263 263 263 264 267 269 271 272 272 271 269 266 263 260 259 260 262 263
305 303 302 301 300 300 300 300 299 298 298 296 295 293 291 290 289 286 284 283 283 283 283 281 281 282 282 283 283 282 281 279 277 276 274 271 269 268 266 263 261 261 261 261 262 264 266 267 269 270 271 273 274 272 268 265 262 261 262 261 261 262 261 262 263 264 263 261 259 258 258 259 262 266 269 271 273 274 272 269 265 261 260 261 262
304 303 303 302 301 302 302 302 300 299 299 297 296 295 293 292 292 290 289 289 288 288 288 285 284 286 286 286 286 283 279 277 276 275 273 271 270 269 268 264 261 258 256 254 253 253 254 255 260 264 265 265 264 261 259 258 257 256 257 256 257 259 261 263 265 265 266 265 265 264 263 262 264 266 269 272 273 274 274 273 271 268 265 263 262
306 305 304 303 304 304 304 304 303 301 301 298 297 297 295 294 294 293 292 292 291 290 290 288 288 288 288 288 289 285 281 280 280 279 278 276 274 270 267 265 263 262 260 259 259 258 256 255 256 256 256 256 256 256 256 256 257 258 259 259 260 262 264 266 268 269 269 269 269 270 270 271 271 272 274 274 273 273 273 274 274 273 271 268 267
307 306 305 304 304 305 305 305 304 302 300 298 296 296 296 295 295 295 294 293 291 290 290 291 292 292 291 291 289 287 285 285 284 285 285 282 279 275 273 272 272 272 272 271 271 271 269 266 263 261 258 257 257 257 258 259 260 262 263 264 265 266 268 269 271 272 272 273 273 274 275 275 276 275 275 275 273 273 272 272 272 272 272 271 269
307 306 306 305 305 306 305 305 304 302 300 299 298 298 299 299 298 298 297 295 294 295 295 296 296 294 294 294 295 295 294 289 287 288 288 284 283 285 286 286 284 282 282 283 282 280 278 274 270 266 263 261 260 259 260 261 262 264 266 267 268 269 270 271 271 272 273 275 276 277 277 278 277 276 276 275 274 273 272 270 268 268 269 269 267
308 307 307 306 306 307 307 307 306 305 303 303 303 303 302 302 300 300 300 298 297 298 298 297 298 300 302 305 306 305 301 296 292 292 291 291 295 298 298 295 293 290 289 289 287 285 282 279 276 273 272 270 268 267 266 266 267 267 268 270 272 274 274 274 274 275 276 277 278 278 279 279 278 278 277 276 274 273 272 270 268 266 265 264 263
310 308 307 307 307 307 308 308 307 307 306 304 303 302 301 301 301 301 301 298 298 299 299 300 302 304 306 307 304 300 298 296 294 292 291 294 297 295 290 287 286 285 287 289 289 287 284 282 281 279 277 276 273 272 271 272 272 273 274 275 275 276 276 276 277 278 278 279 279 280 280 280 278 277 277 276 276 275 273 271 270 267 264 262 261
311 310 309 309 308 309 310 309 308 307 306 304 304 302 298 295 295 297 298 296 295 296 295 296 294 289 291 294 291 287 286 286 285 287 287 285 280 274 271 271 274 277 280 284 285 284 284 284 283 282 280 277 275 274 273 273 273 274 275 275 275 274 274 275 276 276 277 277 277 277 278 278 277 276 275 275 276 276 275 274 272 268 264 263 262
314 314 313 312 311 311 311 310 309 308 306 306 306 305 303 300 296 295 297 296 296 295 292 292 288 281 276 276 275 273 273 273 274 276 276 272 269 269 270 273 276 277 275 273 270 270 272 274 274 274 272 270 269 269 269 269 269 269 269 269 269 269 269 270 270 270 270 270 271 272 272 274 275 275 275 274 274 274 273 272 271 268 266 264 263
315 314 313 312 312 312 311 310 309 309 308 308 307 306 306 306 303 301 300 298 298 297 295 292 288 282 277 274 272 273 275 275 274 273 272 273 276 278 276 274 272 271 269 267 266 266 266 265 265 265 265 265 265 264 263 263 263 262 262 262 263 263 262 262 263 264 264 264 264 264 265 265 266 267 268 268 269 270 270 269 269 267 265 263 263
313 313 313 312 312 312 312 311 310 310 310 309 308 307 307 307 307 307 306 304 301 300 298 297 293 288 284 281 279 278 278 277 275 275 276 281 286 284 276 269 265 265 266 268 268 267 267 268 268 268 269 269 269 269 268 267 266 265 263 262 261 261 260 259 259 260 260 261 262 262 263 262 262 261 261 260 259 260 262 265 265 265 264 262 261
312 312 313 313 313 313 313 311 311 311 311 310 309 309 308 308 308 308 307 307 305 304 303 302 299 296 293 291 289 287 284 281 280 280 281 285 287 280 273 267 263 262 263 265 267 269 271 272 274 275 275 274 273 272 272 271 270 269 268 267 266 265 264 263 263 263 264 265 266 267 268 268 268 267 267 266 264 262 260 259 258 259 262 262 261
312 313 313 312 311 310 310 310 310 311 311 310 309 308 308 308 308 307 306 305 305 304 305 304 301 296 293 293 292 291 287 285 283 282 279 274 272 272 271 270 268 266 265 265 268 272 275 277 278 278 278 277 277 276 275 275 274 274 274 273 273 273 272 272 271 270 270 270 270 270 271 271 272 272 272 271 271 270 268 265 262 258 258 260 259
313 313 313 311 309 308 308 309 310 310 309 309 308 308 309 309 308 307 307 306 305 305 306 306 305 301 297 294 292 290 289 287 286 284 280 274 271 272 274 275 275 273 271 269 269 272 275 278 279 279 278 278 278 278 278 279 279 280 279 279 279 279 279 279 279 278 276 275 275 275 275 275 275 275 275 274 273 272 270 269 267 263 261 262 262
314 315 313 311 310 310 310 311 312 311 310 310 310 309 309 309 308 308 307 307 307 307 307 307 307 305 304 301 297 292 290 289 288 286 282 279 276 277 277 278 279 280 279 277 275 274 276 278 280 281 281 281 281 281 282 283 284 285 286 285 285 284 283 282 281 280 279 279 280 280 281 281 280 279 278 277 275 272 269 267 266 265 262 262 263
317 317 315 314 313 313 313 313 312 311 311 310 310 309 309 310 310 309 308 308 308 309 309 308 307 307 307 305 302 298 295 294 292 290 286 283 281 282 282 283 285 286 287 288 287 285 284 284 283 282 281 281 282 284 286 287 288 288 289 289 289 289 288 287 286 285 284 284 284 284 284 285 285 283 282 280 279 278 274 270 267 267 264 261 260
320 319 317 316 315 314 313 313 312 311 310 309 309 309 309 310 310 310 310 311 311 311 311 309 309 309 308 306 304 302 301 300 298 295 292 289 287 286 287 288 289 289 290 292 292 292 290 288 285 283 283 283 285 287 288 289 291 291 291 292 292 291 291 291 290 288 286 285 286 287 287 288 288 286 284 283 283 284 283 279 275 272 270 267 264
320 319 317 317 315 313 313 312 311 310 310 309 309 310 310 311 312 312 313 314 313 312 312 311 310 310 309 305 302 299 296 295 295 294 293 292 289 287 287 288 289 290 290 290 289 288 288 287 285 285 286 287 289 291 292 293 294 294 293 293 293 292 292 292 289 287 285 284 284 285 286 289 292 291 288 286 286 286 287 287 282 277 274 272 270
319 318 317 316 315 313 314 313 311 310 309 309 310 312 312 313 314 314 314 314 313 312 312 311 311 310 308 304 300 295 290 290 291 292 293 293 292 291 289 288 287 286 286 286 287 287 287 288 289 290 292 294 295 297 298 298 297 296 296 295 294 292 291 290 287 285 283 281 280 281 284 288 290 288 286 286 287 289 290 290 288 286 282 279 276
318 317 316 315 314 314 314 313 312 312 312 312 314 314 314 315 315 314 314 314 314 314 313 313 312 311 309 305 301 297 293 292 292 293 294 294 293 292 290 287 285 285 285 287 290 291 292 293 295 295 297 298 298 300 300 299 298 297 295 293 292 290 289 287 285 284 282 281 281 284 287 288 284 280 279 282 286 288 290 291 290 291 291 289 287
316 315 314 314 315 316 316 315 314 314 315 315 315 314 314 314 315 315 315 315 315 315 315 314 313 312 310 307 304 300 297 295 294 293 294 294 292 292 290 287 285 286 288 291 294 295 296 297 297 297 298 298 298 298 298 297 296 295 293 291 291 289 288 287 286 286 286 287 286 285 284 282 280 278 278 280 282 284 287 289 291 293 294 296 295
314 314 315 316 318 319 319 318 316 316 316 315 314 313 314 315 315 316 316 317 317 317 317 316 314 312 309 307 304 300 297 295 294 293 293 292 290 289 288 287 288 290 294 297 298 299 299 299 298 298 297 297 296 295 294 293 291 289 288 287 286 286 286 287 288 290 289 287 283 280 278 279 282 282 280 279 280 282 284 286 288 290 293 297 300
314 315 317 319 320 320 320 318 317 317 316 315 314 314 315 317 317 318 319 319 320 320 319 318 315 312 309 306 302 298 295 294 294 294 292 290 288 287 287 290 292 295 297 299 301 301 302 301 300 299 297 296 295 295 294 294 292 289 285 283 282 283 285 287 288 288 284 277 275 278 280 282 284 282 280 277 276 276 278 281 284 287 291 294 298
315 316 318 320 320 320 320 319 318 317 316 314 314 315 317 319 320 321 321 322 322 322 321 319 316 313 309 305 300 297 295 293 293 293 291 289 287 288 290 293 297 299 302 303 302 302 301 299 298 297 297 297 298 299 298 298 298 296 295 292 287 283 283 282 280 279 277 275 278 282 283 284 284 281 277 274 271 272 275 279 282 287 291 292 293
314 316 317 318 319 319 319 319 318 317 316 315 315 317 319 321 322 323 323 323 324 324 323 321 317 313 309 305 301 297 296 293 292 291 290 289 289 290 291 295 299 301 302 302 301 300 299 297 297 298 299 300 301 300 299 299 303 307 312 311 297 280 273 273 275 279 281 280 281 282 281 283 283 280 275 273 273 275 279 282 285 288 290 289 287
312 314 315 317 318 318 319 319 318 318 317 317 317 319 321 322 323 324 323 324 325 325 324 321 317 313 309 305 301 298 296 293 291 289 287 287 288 289 291 295 299 300 301 300 298 297 297 297 298 301 303 302 300 297 295 299 307 313 316 311 295 281 279 281 283 286 285 283 283 282 281 280 278 276 273 273 275 277 281 285 288 291 292 288 282
310 312 315 316 317 318 318 319 319 318 318 318 318 320 321 322 323 324 324 324 326 326 325 321 316 312 308 304 300 299 297 294 291 287 284 282 285 288 292 296 299 299 298 297 295 296 298 300 302 303 303 300 296 294 294 299 304 306 304 299 291 287 289 290 290 290 289 286 283 281 278 275 273 271 271 272 275 279 283 288 292 294 293 288 281
310 312 314 315 316 317 317 318 319 318 318 319 319 320 321 322 323 323 324 325 327 327 325 321 316 311 307 303 298 296 294 292 287 283 282 283 287 290 293 295 297 296 295 295 296 297 299 301 302 301 300 298 298 296 294 294 293 291 291 290 291 293 297 299 299 298 296 291 286 282 277 273 271 269 269 271 274 278 283 289 294 296 294 289 283